Overview Statistics Trail Chart Weather Telemetry Raw packets
 

This is the latest recevied weather packets stored in our database for station/object VA2RBQ-7. If no packets are shown the sender has not sent any weather packets the latest 10 day(s).

<< 27 28 29 30 31 32 33 >>
Time Temp. Humidity Pressure Rain* Wind** Luminosity Snow
1788355750 13.89° C 58% 1025.7 hPa 0 mm - - -
1788355446 13.89° C 58% 1025.8 hPa 0 mm - - -
1788355144 14.44° C 58% 1025.8 hPa 0 mm - - -
1788354841 13.89° C 58% 1025.9 hPa 0 mm - - -
1788354539 13.89° C 58% 1025.8 hPa 0 mm - - -
1788354237 13.89° C 58% 1026 hPa 0 mm - - -
1788353933 13.89° C 58% 1025.9 hPa 0 mm - - -
1788353631 12.78° C 58% 1026.1 hPa 0 mm - - -
1788353328 12.22° C 58% 1026.2 hPa 0 mm - - -
1788353026 12.22° C 58% 1026.1 hPa 0 mm - - -
1788352724 12.78° C 58% 1026 hPa 0 mm - - -
1788352420 12.22° C 58% 1026 hPa 0 mm - - -
1788352118 12.22° C 58% 1026 hPa 0 mm - - -
1788351815 12.78° C 58% 1026.1 hPa 0 mm - - -
1788351513 12.22° C 58% 1026 hPa 0 mm - - -
1788351211 -17.78° C 58% 1026.1 hPa 0 mm - - -
1788350904 12.22° C 58% 1026.2 hPa 0 mm - - -
1788350601 11.11° C 58% 1026.2 hPa 0 mm - - -
1788350298 11.11° C 58% 1026.1 hPa 0 mm - - -
1788349996 11.11° C 58% 1026.1 hPa 0 mm - - -
1788349391 10.56° C 58% 1026.2 hPa 0 mm - - -
1788349088 10.56° C 58% 1026.2 hPa 0 mm - - -
1788348785 10.56° C 58% 1026.3 hPa 0 mm - - -
1788348483 10° C 58% 1026.2 hPa 0 mm - - -
1788348180 9.44° C 58% 1026.3 hPa 0 mm - - -

* Rain since midnight (hover to see other rain measurements)
** Current wind speed in m/s (hover to see current wind gust speed)